Florala, AL

9:22 AM CDT on March 26, 2017 (GMT -0500)
Florala

Weather History for K0J4 - July, 2013

Change the Weather History Date:

Sunday, July 28, 2013

  Actual Average (KCEW) Record (KCEW)
Temperature  
Mean Temperature 82 °F -  
Max Temperature 89 °F 92 °F 99 °F (2015)
Min Temperature 75 °F 71 °F 65 °F (1979)
Cooling Degree Days 17    
Growing Degree Days 32 (Base 50)    
Moisture  
Dew Point 74 °F    
Average Humidity 82    
Maximum Humidity 94    
Minimum Humidity 59    
Precipitation  
Precipitation 0.01 in - - ()
Sea Level Pressure  
Sea Level Pressure 29.99 in    
Wind  
Wind Speed 4 mph (South)    
Max Wind Speed 14 mph    
Max Gust Speed 18 mph    
Visibility 9 miles    
Events Rain , Thunderstorm    
Averages and records for this station are not official NWS values.
T = Trace of Precipitation, MM = Missing Value Source: NWS Daily Summary

Daily Weather History Graph

Daily Weather History Graph

Search for Another Location

Airport or City:

Trip Planner

Search our weather history database for the weather conditions in past years. The results will help you decide how hot, cold, wet, or windy it might be!

Date:

Astronomy

Jul. 28, 2013 Rise Set
Actual Time 6:00 AM CDT 7:43 PM CDT
Civil Twilight 5:33 AM CDT 8:09 PM CDT
Nautical Twilight 5:01 AM CDT 8:41 PM CDT
Astronomical Twilight 4:27 AM CDT 9:14 PM CDT
Moon 11:36 PM CDT (7/28) 12:10 PM CDT (7/28)
Length of Visible Light 14h 36m
Length of Day
13h 43m
Waning Gibbous, 60% of the Moon is Illuminated
Jul 28
Waning Gibbous
Jul 29
Last Quarter
Aug 6
New
Aug 14
First Quarter
Aug 20
Full

Hourly Weather History & Observations

Time (CDT) Temp. Heat Index Dew Point Humidity Pressure Visibility Wind Dir Wind Speed Gust Speed Precip Events Conditions
12:58 AM 75.0 °F - 72.0 °F 90% 29.95 in 8.0 mi Calm Calm - N/A   Overcast
1:58 AM 75.0 °F - 72.0 °F 90% 29.94 in 9.0 mi Calm Calm - N/A   Overcast
2:58 AM 75.0 °F - 72.0 °F 90% 29.94 in 8.0 mi Calm Calm - N/A   Overcast
3:58 AM 75.0 °F - 73.0 °F 94% 29.93 in 6.0 mi SE 3.5 mph - N/A   Overcast
4:58 AM 75.0 °F - 73.0 °F 94% 29.94 in 7.0 mi Calm Calm - N/A   Overcast
5:58 AM 75.0 °F - 72.0 °F 90% 29.96 in 10.0 mi Calm Calm - N/A   Overcast
6:58 AM 75.0 °F - 72.0 °F 90% 29.97 in 10.0 mi South 8.1 mph - N/A   Overcast
7:58 AM 75.9 °F - 72.0 °F 87% 29.99 in 10.0 mi SSW 6.9 mph - N/A   Overcast
8:58 AM 75.9 °F - 72.0 °F 87% 29.97 in 10.0 mi SSW 5.8 mph - N/A   Overcast
9:19 AM 78.8 °F - 73.4 °F 83% 29.99 in 10.0 mi South 6.9 mph - N/A   Mostly Cloudy
9:43 AM 78.8 °F - 73.4 °F 83% 29.99 in 10.0 mi South 3.5 mph - N/A   Mostly Cloudy
9:58 AM 80.1 °F 84.5 °F 73.9 °F 81% 29.98 in 10.0 mi Calm Calm - N/A   Overcast
10:36 AM 82.4 °F 88.2 °F 73.4 °F 74% 29.99 in 10.0 mi South 5.8 mph - N/A   Mostly Cloudy
10:46 AM 82.4 °F 88.2 °F 73.4 °F 74% 29.99 in 10.0 mi South 5.8 mph - N/A   Mostly Cloudy
10:56 AM 82.4 °F 88.2 °F 73.4 °F 74% 29.99 in 10.0 mi SSE 5.8 mph - N/A   Mostly Cloudy
10:58 AM 82.0 °F 87.9 °F 73.9 °F 76% 29.98 in 10.0 mi Variable 4.6 mph - N/A   Mostly Cloudy
11:57 AM 82.0 °F 87.9 °F 73.9 °F 76% 29.99 in 9.0 mi South 4.6 mph - 0.00 in Rain Light Rain
12:23 PM 84.2 °F 92.3 °F 75.2 °F 74% 30.00 in 10.0 mi South 5.8 mph - 0.00 in   Overcast
12:58 PM 86.0 °F 93.8 °F 73.9 °F 67% 29.98 in 10.0 mi SW 6.9 mph - 0.00 in   Mostly Cloudy
1:58 PM 87.1 °F 96.3 °F 75.0 °F 67% 29.97 in 10.0 mi SSE 3.5 mph - N/A   Mostly Cloudy
2:58 PM 88.0 °F 96.5 °F 73.9 °F 63% 29.95 in 10.0 mi Variable 6.9 mph - N/A   Clear
3:58 PM 89.1 °F 97.0 °F 73.0 °F 59% 29.94 in 10.0 mi SSE 6.9 mph - N/A   Scattered Clouds
4:58 PM 88.0 °F 97.5 °F 75.0 °F 65% 29.95 in 10.0 mi South 13.8 mph 18.4 mph N/A   Clear
5:58 PM 84.0 °F 91.9 °F 75.0 °F 74% 29.96 in 10.0 mi South 8.1 mph - N/A   Scattered Clouds
6:10 PM 84.2 °F 92.3 °F 75.2 °F 74% 29.98 in 10.0 mi South 5.8 mph - N/A   Mostly Cloudy
6:19 PM 84.2 °F 92.3 °F 75.2 °F 74% 29.97 in 10.0 mi South 6.9 mph - N/A   Mostly Cloudy
6:43 PM 82.4 °F 89.5 °F 75.2 °F 79% 29.98 in 10.0 mi South 10.4 mph - N/A   Mostly Cloudy
6:47 PM 82.4 °F 89.5 °F 75.2 °F 79% 29.98 in 10.0 mi SSW 9.2 mph - N/A   Mostly Cloudy
6:58 PM 82.9 °F 89.4 °F 73.9 °F 74% 29.96 in 10.0 mi SSW 10.4 mph - N/A   Mostly Cloudy
7:36 PM 80.6 °F 86.2 °F 75.2 °F 84% 29.99 in 10.0 mi SSW 8.1 mph - N/A Thunderstorm Thunderstorm
7:58 PM 81.0 °F 86.7 °F 75.0 °F 82% 29.99 in 10.0 mi SSW 3.5 mph - N/A Thunderstorm Thunderstorm
8:35 PM 80.6 °F 86.2 °F 75.2 °F 84% 30.03 in 10.0 mi SSE 3.5 mph - N/A   Clear
8:41 PM 78.8 °F - 75.2 °F 89% 30.03 in 10.0 mi SSE 4.6 mph - N/A Thunderstorm Thunderstorm
8:58 PM 79.0 °F - 75.0 °F 88% 30.01 in 10.0 mi SSW 5.8 mph - N/A Thunderstorm Thunderstorm
9:58 PM 79.0 °F - 75.0 °F 88% 30.04 in 10.0 mi Calm Calm - N/A Thunderstorm Thunderstorm
10:10 PM 78.8 °F - 75.2 °F 89% 30.05 in 6.0 mi Calm Calm - 0.00 in Rain , Thunderstorm Light Thunderstorms and Rain
10:19 PM 78.8 °F - 75.2 °F 89% 30.05 in 8.0 mi Calm Calm - 0.01 in Rain Light Rain
10:34 PM 78.8 °F - 75.2 °F 89% 30.05 in 8.0 mi Calm Calm - 0.01 in Rain Light Rain
10:45 PM 77.0 °F - 75.2 °F 94% 30.05 in 7.0 mi SW 4.6 mph - 0.01 in   Overcast
10:58 PM 78.1 °F - 75.9 °F 93% 30.03 in 7.0 mi South 6.9 mph - 0.01 in   Overcast
11:58 PM 77.0 °F - 75.0 °F 94% 30.03 in 6.0 mi Calm Calm - N/A   Mostly Cloudy